{"data":{"norad_id":68360,"epoch":"2026-09-19T18:42:51.356448Z","epoch_age_seconds":134408,"freshness":"FRESH","line1":"1 68360U 26061A   26262.77976107  .00002520  00000+0  12097-3 0  9990","line2":"2 68360  82.2876 275.6103 0002134  68.4985 291.6476 15.18440752 27924","mean_motion":15.18440752,"eccentricity":0.0002134,"inclination_deg":82.2876,"raan_deg":275.6103,"arg_perigee_deg":68.4985,"mean_anomaly_deg":291.6476,"bstar":0.00012097,"rev_number":2792,"period_min":94.834124947142,"perigee_km":509.08241500903,"apogee_km":512.02250767113,"semimajor_km":6888.6894613401,"source":"CELESTRAK","updated_at":"2026-09-20T09:00:24.161354Z"}}